[[{"header":{"parameterUnit":"m.s-1","parameterCategory":1,"la1":30.2991,"la2":30.254,"lo1":-89.0895,"lo2":-89.0444,"dy":0.0017,"dx":0.0017,"nx":28,"ny":28,"refTime":"2024-04-21T03:00:00:Z","depth":0,"parameterNumber":2,"parameterNumberName":"U-component_of_WINDS"},"data":[0,0,0,0,0,0,0,0,0,0,0,0,0,0,0,0,0,0,0,0,0,0,0,0,0,0,0,0,0,0,0,0,0,0,0,0,0,0,0,0,0,0,0,0,0,0,0,0,0,0,0,0,0,0,0,0,0,0,0.2493,0.2493,0,0.2473,0.2473,0.2472,0.2487,0.2488,0.2489,0.2489,0.2467,0.2466,0.2464,0,0,0,0,0,0,0,0,0,0,0,0,0,0.2544,0.2543,0.2493,0.2493,0.2493,0.2473,0.2473,0.2472,0.2487,0.2488,0.2489,0.249,0.2467,0.2466,0.2464,0,0,0,0,0,0,0,0,0,0,0,0,0,0.2523,0.2543,0.2493,0.2498,0.2498,0.2473,0.2473,0.2472,0.2487,0.2488,0.2489,0.249,0.2468,0.2466,0.2464,0.2433,0,0,0.2458,0.2458,0,0,0,0,0,0,0,0,0.2524,0.2521,0.2497,0.2497,0.2498,0.2484,0.2482,0.2459,0.2487,0.2491,0.2489,0.2491,0.2471,0.2469,0.2463,0.2432,0.2431,0.2458,0.2457,0.2456,0.2456,0,0,0,0,0,0,0,0.2525,0.2522,0.2485,0.2497,0.2497,0.2501,0.2499,0.2478,0.2476,0.2491,0.2492,0.2489,0.2472,0.2465,0.2463,0.2431,0.2458,0.2457,0.2456,0.2455,0.2373,0.2372,0,0,0,0,0,0,0.2526,0.2523,0.2486,0.2485,0.2513,0.2499,0.2497,0.2487,0.2476,0.2476,0.2489,0.249,0.2468,0.2465,0.2462,0.2425,0.2456,0.2455,0.2454,0.2375,0.2373,0.2372,0,0,0,0,0,0,0.2527,0.2523,0.2487,0.2504,0.25,0.2497,0.2486,0.2486,0.248,0.2475,0.2474,0.2482,0.2468,0.2465,0.244,0.2425,0.2454,0.2452,0.2376,0.2374,0.2373,0.2351,0,0,0,0,0,0,0.2529,0.2523,0.2511,0.2504,0.2499,0.2465,0.2485,0.2485,0.2477,0.2479,0.2468,0.2468,0.2469,0.2443,0.2439,0.2423,0.2451,0.2377,0.2375,0.2373,0.2353,0.2349,0.2345,0,0,0,0,0,0.2531,0.2505,0.2511,0.2506,0.2484,0.2464,0.2461,0.2464,0.2475,0.2463,0.246,0.2468,0.2428,0.244,0.2436,0.2419,0.2378,0.2376,0.2373,0.2355,0.235,0.2345,0,0,0,0,0,0,0.251,0.2504,0.251,0.2482,0.2474,0.2467,0.2452,0.2458,0.2446,0.2448,0.2451,0.2449,0.2423,0.2419,0.2433,0.2389,0.2405,0.2401,0.2392,0.2387,0.2383,0.2385,0.2449,0,0,0,0,0,0.2503,0.2488,0.2483,0.2459,0.2455,0.2454,0.2445,0.2448,0.244,0.2436,0.2431,0.2422,0.2407,0.2397,0.2383,0.2353,0.2351,0.2339,0.2336,0.2332,0.2329,0.2313,0.2308,0.2364,0.2364,0.2364,0,0,0.2486,0.2481,0.2472,0.2455,0.2449,0.2433,0.2451,0.2433,0.2421,0.2433,0.241,0.2406,0.2396,0.2369,0.2357,0.2364,0.2313,0.2329,0.2327,0.2325,0.231,0.2305,0.23,0.2363,0.2363,0.2363,0,0,0.2449,0.2444,0.2423,0.2417,0.2408,0.2408,0.2403,0.2396,0.2394,0.2371,0.238,0.2366,0.2341,0.2333,0.2326,0.2288,0.2295,0.2283,0.2262,0.2247,0.2243,0.2239,0.2225,0.222,0.228,0.228,0.228,0,0.2429,0.2406,0.2411,0.2393,0.2385,0.2397,0.2376,0.237,0.2356,0.2351,0.236,0.2329,0.2323,0.2295,0.2286,0.228,0.2274,0.2284,0.2243,0.2239,0.2235,0.2222,0.2217,0.2279,0.2279,0.2279,0.2279,0,0.2383,0.2367,0.2351,0.2339,0.233,0.231,0.2312,0.2302,0.2307,0.2306,0.2283,0.2277,0.2262,0.2256,0.2259,0.2228,0.2233,0.2243,0.2258,0.2229,0.2216,0.2211,0.2277,0.2278,0.2278,0.2278,0,0,0.2329,0.2322,0.2316,0.2311,0.2303,0.2291,0.2272,0.2259,0.225,0.2241,0.2226,0.2205,0.2214,0.2206,0.2209,0.2196,0.2166,0.2207,0.2207,0.2199,0.2132,0.2124,0.2118,0.2171,0.217,0.217,0.2132,0,0.2291,0.2259,0.2264,0.2233,0.2218,0.223,0.2214,0.2207,0.2207,0.2194,0.2193,0.2178,0.2192,0.2187,0.2175,0.2172,0.2152,0.2175,0.2156,0.2155,0.2157,0.2111,0.2103,0.2068,0.2127,0.2127,0.2126,0,0.2241,0.2231,0.2199,0.2195,0.2189,0.2174,0.2163,0.2151,0.2144,0.2145,0.2137,0.2143,0.2124,0.2142,0.2117,0.2132,0.2125,0.2123,0.2122,0.2119,0.2138,0.2107,0.2056,0.2051,0.2119,0.2119,0.212,0,0.2205,0.2184,0.2162,0.2158,0.2152,0.2142,0.2139,0.2133,0.2125,0.2115,0.211,0.2098,0.2091,0.2082,0.2085,0.2097,0.2059,0.2077,0.2058,0.2058,0.2048,0.2049,0.1995,0.2045,0.2046,0.2046,0.2046,0,0.2161,0.214,0.2146,0.2133,0.2111,0.2117,0.2095,0.2093,0.2088,0.2075,0.2084,0.2071,0.2076,0.2064,0.2066,0.2045,0.2041,0.2041,0.2042,0.204,0.204,0.2034,0.2036,0.2044,0.2045,0.2045,0.2045,0,0.2116,0.2119,0.2096,0.2093,0.2092,0.2076,0.2073,0.2061,0.2062,0.2044,0.2041,0.2042,0.2027,0.203,0.2014,0.2015,0.1989,0.1993,0.1991,0.1992,0.1973,0.1975,0.1913,0.1906,0.1961,0.1961,0.1961,0,0.2087,0.2072,0.2068,0.206,0.2056,0.2043,0.2036,0.2042,0.2033,0.2025,0.2014,0.2001,0.199,0.1967,0.1966,0.1954,0.1958,0.1937,0.1956,0.1954,0.1957,0.1957,0.1956,0.1933,0.1932,0.1932,0.1931,0,0.2035,0.2038,0.2027,0.2017,0.2008,0.2,0.1993,0.1986,0.1991,0.1981,0.1968,0.196,0.1944,0.1931,0.192,0.1917,0.1925,0.1926,0.1921,0.1918,0.1918,0.1917,0.198,0.1927,0.1927,0.1928,0.1928,0.1928,0.1996,0.1984,0.198,0.1967,0.1963,0.1957,0.1945,0.1945,0.1934,0.1922,0.1927,0.1911,0.1906,0.1892,0.1888,0.1876,0.1883,0.1876,0.1874,0.1872,0.187,0.1921,0.1874,0.1874,0.1874,0.1874,0.1874,0,0.1945,0.1943,0.1932,0.1922,0.1913,0.1923,0.1916,0.1907,0.1893,0.1888,0.1878,0.1863,0.1851,0.185,0.1838,0.1829,0.1832,0.1825,0.1826,0.1825,0.1864,0.1869,0.1823,0.1823,0.1823,0.1823,0.1823,0.1823,0.1916,0.1896,0.1898,0.1876,0.1875,0.186,0.1855,0.1849,0.1845,0.1828,0.1818,0.1818,0.1815,0.1803,0.1793,0.1793,0.1788,0.1779,0.1781,0.1817,0.1822,0.1827,0.1832,0.1779,0.1779,0.1743,0.1743,0.1742]},{"header":{"parameterUnit":"m.s-1","parameterCategory":1,"la1":30.2991,"la2":30.254,"lo1":-89.0895,"lo2":-89.0444,"dy":0.0017,"dx":0.0017,"nx":28,"ny":28,"refTime":"2024-04-21T03:00:00:Z","depth":0,"parameterNumber":3,"parameterNumberName":"V-component_of_WINDS"},"data":[0,0,0,0,0,0,0,0,0,0,0,0,0,0,0,0,0,0,0,0,0,0,0,0,0,0,0,0,0,0,0,0,0,0,0,0,0,0,0,0,0,0,0,0,0,0,0,0,0,0,0,0,0,0,0,0,0,0,-7.2562,-7.2563,0,-7.2701,-7.2703,-7.2704,-7.2625,-7.2621,-7.2617,-7.2613,-7.2749,-7.2756,-7.2764,0,0,0,0,0,0,0,0,0,0,0,0,0,-7.2221,-7.2228,-7.2562,-7.2564,-7.2565,-7.2701,-7.2703,-7.2705,-7.2625,-7.2621,-7.2616,-7.2611,-7.2747,-7.2756,-7.2764,0,0,0,0,0,0,0,0,0,0,0,0,0,-7.2365,-7.223,-7.2562,-7.2542,-7.2542,-7.2701,-7.2703,-7.2705,-7.2626,-7.262,-7.2615,-7.2609,-7.2744,-7.2755,-7.2765,-7.2949,0,0,-7.2799,-7.2803,0,0,0,0,0,0,0,0,-7.2357,-7.2378,-7.2543,-7.2544,-7.2544,-7.264,-7.2632,-7.2787,-7.2628,-7.2594,-7.2613,-7.2606,-7.2717,-7.273,-7.2769,-7.2955,-7.2961,-7.28,-7.2806,-7.2811,-7.2814,0,0,0,0,0,0,0,-7.2347,-7.2371,-7.2617,-7.2546,-7.2546,-7.2524,-7.2539,-7.2661,-7.2686,-7.2597,-7.2591,-7.2609,-7.2716,-7.2758,-7.2771,-7.2963,-7.2799,-7.2809,-7.2816,-7.282,-7.3306,-7.3313,0,0,0,0,0,0,-7.234,-7.2364,-7.2612,-7.2621,-7.2435,-7.2535,-7.2551,-7.2615,-7.2685,-7.269,-7.2614,-7.2605,-7.2743,-7.2759,-7.2776,-7.2995,-7.2811,-7.2821,-7.2827,-7.33,-7.3308,-7.3315,0,0,0,0,0,0,-7.2333,-7.2363,-7.2607,-7.2491,-7.252,-7.2548,-7.2619,-7.262,-7.2663,-7.2698,-7.2701,-7.2653,-7.2739,-7.276,-7.2907,-7.2998,-7.2826,-7.2836,-7.3293,-7.3303,-7.3311,-7.3435,0,0,0,0,0,0,-7.2323,-7.2361,-7.2432,-7.2493,-7.2527,-7.2738,-7.2625,-7.2627,-7.2682,-7.2672,-7.2735,-7.274,-7.2736,-7.2891,-7.2918,-7.301,-7.2844,-7.3284,-7.3297,-7.3308,-7.3423,-7.3448,-7.3469,0,0,0,0,0,-7.2311,-7.246,-7.2436,-7.2467,-7.2617,-7.2743,-7.2762,-7.2756,-7.269,-7.2761,-7.2784,-7.2738,-7.2984,-7.2907,-7.2936,-7.3033,-7.3279,-7.3293,-7.3307,-7.3412,-7.3443,-7.3468,0,0,0,0,0,0,-7.2406,-7.2468,-7.2442,-7.2615,-7.2675,-7.273,-7.2819,-7.2788,-7.2866,-7.2853,-7.2839,-7.2854,-7.3007,-7.3034,-7.2947,-7.3214,-7.3121,-7.3142,-7.3191,-7.322,-7.3242,-7.3232,-7.2853,0,0,0,0,0,-7.2448,-7.2548,-7.2595,-7.2743,-7.2774,-7.2792,-7.2847,-7.2837,-7.2897,-7.2921,-7.2954,-7.3013,-7.3103,-7.3163,-7.3248,-7.3426,-7.3438,-7.3508,-7.3531,-7.3549,-7.3567,-7.3663,-7.3694,-7.3362,-7.3362,-7.3362,0,0,-7.2534,-7.258,-7.2643,-7.2763,-7.2808,-7.291,-7.2814,-7.2925,-7.2999,-7.2937,-7.3078,-7.3105,-7.3169,-7.3332,-7.3406,-7.336,-7.3662,-7.3568,-7.3582,-7.359,-7.3681,-7.3712,-7.374,-7.3372,-7.337,-7.3369,0,0,-7.2743,-7.2788,-7.2917,-7.2964,-7.3035,-7.3046,-7.3076,-7.3137,-7.3152,-7.3294,-7.325,-7.3337,-7.3493,-7.354,-7.3585,-7.3813,-7.3773,-7.384,-7.396,-7.4054,-7.408,-7.4103,-7.4183,-7.4212,-7.3858,-7.3859,-7.3859,0,-7.2841,-7.2994,-7.2986,-7.3102,-7.3155,-7.3106,-7.3235,-7.3281,-7.3374,-7.3411,-7.3359,-7.3555,-7.3594,-7.3768,-7.3823,-7.3861,-7.3895,-7.3833,-7.4077,-7.41,-7.4122,-7.4198,-7.4228,-7.3866,-7.3865,-7.3865,-7.3864,0,-7.311,-7.3216,-7.3311,-7.3406,-7.347,-7.3591,-7.36,-7.3666,-7.365,-7.3666,-7.381,-7.3856,-7.395,-7.399,-7.3975,-7.4162,-7.4131,-7.4079,-7.3984,-7.4161,-7.4233,-7.4262,-7.3877,-7.3875,-7.3872,-7.387,0,0,-7.3382,-7.3472,-7.3506,-7.3549,-7.3623,-7.3704,-7.3822,-7.3916,-7.3972,-7.4038,-7.4136,-7.427,-7.4222,-7.4272,-7.4262,-7.4344,-7.4521,-7.4281,-7.4283,-7.4324,-7.4728,-7.4767,-7.4801,-7.4495,-7.4501,-7.4505,-7.4722,0,-7.3595,-7.3805,-7.3802,-7.3995,-7.4093,-7.4048,-7.4151,-7.4206,-7.4224,-7.4308,-7.4326,-7.4421,-7.4351,-7.4381,-7.4461,-7.4483,-7.4602,-7.4467,-7.4584,-7.4589,-7.457,-7.4839,-7.488,-7.5083,-7.475,-7.4755,-7.4759,0,-7.3872,-7.395,-7.4154,-7.4214,-7.4255,-7.4348,-7.4433,-7.4514,-7.4576,-7.4583,-7.464,-7.4617,-7.4735,-7.4639,-7.48,-7.4709,-7.4757,-7.4775,-7.4782,-7.4792,-7.4684,-7.4855,-7.5147,-7.5178,-7.4803,-7.4799,-7.4796,0,-7.405,-7.4205,-7.4347,-7.4385,-7.4458,-7.4525,-7.4558,-7.4614,-7.467,-7.4744,-7.478,-7.4866,-7.4913,-7.4979,-7.4979,-7.4909,-7.5143,-7.5046,-7.515,-7.5151,-7.5201,-7.5198,-7.5504,-7.5233,-7.5233,-7.5232,-7.5231,0,-7.4288,-7.4414,-7.4428,-7.4516,-7.4655,-7.465,-7.4787,-7.4814,-7.4864,-7.4954,-7.492,-7.5004,-7.5,-7.5085,-7.5086,-7.5219,-7.5241,-7.5248,-7.5247,-7.5251,-7.525,-7.5282,-7.5268,-7.524,-7.5238,-7.5237,-7.5235,0,-7.4509,-7.4524,-7.4676,-7.4734,-7.4752,-7.4852,-7.49,-7.4982,-7.4997,-7.5112,-7.5138,-7.5161,-7.526,-7.5267,-7.538,-7.5381,-7.5543,-7.5526,-7.5523,-7.552,-7.5623,-7.5613,-7.596,-7.6005,-7.5705,-7.5708,-7.5711,0,-7.466,-7.4757,-7.4826,-7.4885,-7.4923,-7.5018,-7.5076,-7.5074,-7.5135,-7.5213,-7.5285,-7.5381,-7.5458,-7.5618,-7.5643,-7.5729,-7.5714,-7.583,-7.5726,-7.5728,-7.5715,-7.5709,-7.5718,-7.5849,-7.5853,-7.5855,-7.5858,0,-7.4926,-7.4929,-7.5015,-7.5105,-7.5176,-7.5245,-7.531,-7.536,-7.5365,-7.5435,-7.5537,-7.5597,-7.5714,-7.5809,-7.5894,-7.5925,-7.5893,-7.589,-7.5919,-7.5924,-7.5918,-7.5923,-7.5577,-7.5882,-7.588,-7.5878,-7.5876,-7.5875,-7.5117,-7.5201,-7.5263,-7.536,-7.5409,-7.547,-7.5551,-7.5576,-7.5662,-7.5759,-7.5751,-7.5864,-7.5922,-7.6033,-7.6071,-7.6158,-7.6118,-7.616,-7.617,-7.618,-7.6191,-7.5905,-7.6173,-7.6172,-7.6171,-7.6171,-7.617,0,-7.5381,-7.5419,-7.5508,-7.5601,-7.5678,-7.5642,-7.5712,-7.5777,-7.5878,-7.5936,-7.6013,-7.6129,-7.6221,-7.6255,-7.6344,-7.6407,-7.6394,-7.643,-7.6425,-7.6433,-7.6221,-7.6188,-7.6439,-7.6439,-7.6439,-7.6439,-7.6439,-7.6439,-7.5527,-7.5667,-7.5677,-7.584,-7.5876,-7.5989,-7.6031,-7.6087,-7.6134,-7.6266,-7.6344,-7.6366,-7.6413,-7.6506,-7.6588,-7.6595,-7.6629,-7.6672,-7.6673,-7.6475,-7.6448,-7.6422,-7.639,-7.668,-7.668,-7.6877,-7.6879,-7.688]}]]